sat.trackr.live / text

‹ back to catalog

STARLINK-36056

NORAD 67206 · 2025-304Q

PAYLOAD ACTIVE UNKNOWN

§ Identity

Operator
Country
US
Launch date
2025-12-17
Launch site
AFWTR
Launch vehicle
Mass (kg)
RCS (m²)

Purposes: comms

External: N2YO · Heavens-Above · Gunter

§ Orbital elements

Epoch: 2026-09-19T18:42:54.902304Z

Period
96.11 min
Inclination
70.0016°
Eccentricity
0.0003578
Mean motion
14.98335601 rev/d
Perigee alt
569.6 km
Apogee alt
574.5 km
Semi-major
6,950.2 km
B*
1.8922e-4
RAAN
45.2366°
Arg perigee
270.0844°
Mean anomaly
89.9905°
Rev number
4,292

§ Raw data

STARLINK-360561 67206U 25304Q   26262.77980211  .00002166  00000+0  18922-3 0  99972 67206  70.0016  45.2366 0003578 270.0844  89.9905 14.98335601 42928

JSON: /api/v1/satellites/67206 · /tle

For live sub-satellite position, see the globe view (requires WebGL).

§ Visibility from observer

Set your observer location to see the next 7 days of passes ≥ 10°. The values pass through the URL so the page stays shareable.

No JS? Fill the form by hand. The geolocation button needs JavaScript.